TimeCST,TemperatureF,Dew PointF,Humidity,Sea Level PressureIn,VisibilityMPH,Wind Direction,Wind SpeedMPH,Gust SpeedMPH,PrecipitationIn,Events,Conditions,WindDirDegrees,DateUTC
12:58 AM,26.8,18.7,72,30.35,10.0,SE,6.9,-,N/A,,Clear,130,2013-02-02 06:58:00
1:58 AM,26.6,19.0,73,30.34,10.0,SSE,5.8,-,N/A,,Clear,150,2013-02-02 07:58:00
2:58 AM,26.8,18.9,72,30.33,10.0,ESE,4.6,-,N/A,,Clear,110,2013-02-02 08:58:00
3:58 AM,26.1,18.7,74,30.32,10.0,ENE,1.2,-,N/A,,Clear,60,2013-02-02 09:58:00
4:58 AM,26.8,18.9,72,30.30,10.0,SSE,9.2,-,N/A,,Clear,150,2013-02-02 10:58:00
5:58 AM,30.6,18.7,61,30.29,10.0,SSE,6.9,-,N/A,,Clear,160,2013-02-02 11:58:00
6:58 AM,32.0,19.6,60,30.29,10.0,SSE,8.1,-,N/A,,Partly Cloudy,150,2013-02-02 12:58:00
7:58 AM,36.5,19.6,50,30.31,10.0,SSE,6.9,-,N/A,,Scattered Clouds,160,2013-02-02 13:58:00
8:58 AM,39.0,19.2,45,30.32,10.0,Variable,5.8,-,N/A,,Overcast,0,2013-02-02 14:58:00
9:58 AM,43.5,22.1,43,30.31,10.0,South,5.8,-,N/A,,Overcast,170,2013-02-02 15:58:00
10:58 AM,47.8,26.6,44,30.27,10.0,SSW,6.9,-,N/A,,Mostly Cloudy,210,2013-02-02 16:58:00
11:58 AM,53.6,30.2,41,30.22,10.0,South,8.1,-,N/A,,Scattered Clouds,190,2013-02-02 17:58:00
12:58 PM,56.7,33.3,41,30.17,10.0,SSW,8.1,-,N/A,,Scattered Clouds,200,2013-02-02 18:58:00
1:15 PM,55.4,33.8,44,30.15,10.0,South,10.4,-,N/A,Rain,Light Rain,190,2013-02-02 19:15:00
1:25 PM,53.6,35.6,51,30.15,10.0,South,6.9,-,N/A,Rain,Light Rain,190,2013-02-02 19:25:00
1:38 PM,51.8,39.2,62,30.14,10.0,South,5.8,-,N/A,,Overcast,170,2013-02-02 19:38:00
1:58 PM,52.7,38.8,59,30.14,10.0,SSE,6.9,-,0.00,,Overcast,160,2013-02-02 19:58:00
2:00 PM,51.8,39.2,62,30.14,10.0,SSE,6.9,-,N/A,Rain,Light Rain,160,2013-02-02 20:00:00
2:16 PM,51.8,41.0,67,30.13,10.0,South,4.6,-,N/A,,Overcast,170,2013-02-02 20:16:00
2:23 PM,51.8,42.8,71,30.15,10.0,South,3.5,-,N/A,Rain,Light Rain,180,2013-02-02 20:23:00
2:48 PM,51.8,44.6,76,30.16,10.0,North,20.7,24.2,N/A,Rain,Light Rain,350,2013-02-02 20:48:00
2:56 PM,48.2,41.0,76,30.17,10.0,NNW,20.7,-,N/A,,Overcast,340,2013-02-02 20:56:00
2:59 PM,46.4,41.0,81,30.19,10.0,NNW,18.4,-,0.00,,Overcast,340,2013-02-02 20:59:00
3:08 PM,46.4,41.0,81,30.17,10.0,NNW,12.7,-,N/A,Rain,Light Rain,340,2013-02-02 21:08:00
3:10 PM,46.4,41.0,81,30.18,10.0,North,11.5,-,N/A,Rain,Light Rain,350,2013-02-02 21:10:00
3:40 PM,44.6,42.8,93,30.18,10.0,North,6.9,-,N/A,,Overcast,350,2013-02-02 21:40:00
3:55 PM,44.6,42.8,93,30.18,10.0,NNW,4.6,-,N/A,,Overcast,340,2013-02-02 21:55:00
3:58 PM,45.3,42.6,90,30.20,10.0,North,5.8,-,0.02,,Overcast,350,2013-02-02 21:58:00
4:08 PM,44.6,42.8,93,30.18,10.0,North,3.5,-,N/A,,Overcast,360,2013-02-02 22:08:00
4:28 PM,46.4,42.8,87,30.18,10.0,North,1.2,-,N/A,,Mostly Cloudy,360,2013-02-02 22:28:00
4:58 PM,46.0,42.8,88,30.19,10.0,Calm,Calm,-,N/A,,Clear,0,2013-02-02 22:58:00
5:43 PM,42.8,41.0,93,30.18,4.0,SSE,1.2,-,N/A,,Clear,160,2013-02-02 23:43:00
5:53 PM,41.0,39.2,93,30.18,8.0,SW,1.2,-,N/A,,Clear,220,2013-02-02 23:53:00
5:58 PM,40.6,39.4,95,30.19,10.0,SW,1.2,-,N/A,,Clear,230,2013-02-02 23:58:00
6:48 PM,39.2,37.4,93,30.19,4.0,Calm,Calm,-,N/A,,Clear,0,2013-02-03 00:48:00
6:58 PM,39.2,39.2,100,30.21,4.0,Calm,Calm,-,N/A,,Clear,0,2013-02-03 00:58:00
7:03 PM,39.2,39.2,100,30.19,1.0,Calm,Calm,-,N/A,,Clear,0,2013-02-03 01:03:00
7:08 PM,39.2,37.4,93,30.19,0.5,Calm,Calm,-,N/A,Fog,Fog,0,2013-02-03 01:08:00
7:13 PM,37.4,35.6,93,30.19,0.2,Calm,Calm,-,N/A,Fog,Fog,0,2013-02-03 01:13:00
7:23 PM,37.4,35.6,93,30.20,0.5,NNW,1.2,-,N/A,Fog,Fog,330,2013-02-03 01:23:00
7:28 PM,37.4,37.4,100,30.20,0.2,NNW,2.3,-,N/A,Fog,Fog,330,2013-02-03 01:28:00
7:48 PM,37.4,37.4,100,30.21,0.5,Calm,Calm,-,N/A,Fog,Fog,0,2013-02-03 01:48:00
7:53 PM,37.4,35.6,93,30.21,0.8,Calm,Calm,-,N/A,,Clear,0,2013-02-03 01:53:00
7:58 PM,35.6,35.6,100,30.23,0.5,NNW,1.2,-,N/A,Fog,Fog,330,2013-02-03 01:58:00
8:03 PM,35.6,35.6,100,30.21,0.5,Calm,Calm,-,N/A,Fog,Fog,0,2013-02-03 02:03:00
8:18 PM,35.6,33.8,93,30.21,0.8,Calm,Calm,-,N/A,,Clear,0,2013-02-03 02:18:00
8:23 PM,35.6,33.8,93,30.22,1.2,Calm,Calm,-,N/A,,Clear,0,2013-02-03 02:23:00
8:28 PM,35.6,35.6,100,30.22,0.8,NNW,2.3,-,N/A,,Clear,340,2013-02-03 02:28:00
8:33 PM,35.6,35.6,100,30.22,0.8,NNW,2.3,-,N/A,,Clear,330,2013-02-03 02:33:00
8:38 PM,35.6,35.6,100,30.22,0.5,Calm,Calm,-,N/A,Fog,Fog,340,2013-02-03 02:38:00
8:53 PM,35.6,35.6,100,30.22,0.8,Calm,Calm,-,N/A,,Clear,360,2013-02-03 02:53:00
8:58 PM,35.6,35.6,100,30.24,1.0,NW,1.2,-,N/A,,Clear,310,2013-02-03 02:58:00
9:08 PM,33.8,33.8,100,30.22,1.2,Calm,Calm,-,N/A,,Clear,0,2013-02-03 03:08:00
9:13 PM,32.0,32.0,100,30.22,1.2,North,-9999.0,-,N/A,,Clear,0,2013-02-03 03:13:00
9:18 PM,32.0,32.0,100,30.23,1.0,Calm,Calm,-,N/A,,Clear,0,2013-02-03 03:18:00
9:23 PM,33.8,33.8,100,30.23,1.2,Calm,Calm,-,N/A,,Clear,0,2013-02-03 03:23:00
9:28 PM,35.6,33.8,93,30.23,1.8,Calm,Calm,-,N/A,,Clear,0,2013-02-03 03:28:00
9:33 PM,35.6,33.8,93,30.23,1.0,Calm,Calm,-,N/A,,Clear,0,2013-02-03 03:33:00
9:38 PM,35.6,33.8,93,30.23,0.8,Calm,Calm,-,N/A,,Clear,0,2013-02-03 03:38:00
9:48 PM,33.8,33.8,100,30.23,1.0,Calm,Calm,-,N/A,,Clear,0,2013-02-03 03:48:00
9:58 PM,35.2,35.1,99,30.25,1.0,Calm,Calm,-,N/A,,Clear,0,2013-02-03 03:58:00
10:08 PM,32.0,32.0,100,30.22,0.8,South,1.2,-,N/A,,Clear,170,2013-02-03 04:08:00
10:18 PM,32.0,32.0,100,30.22,0.8,South,1.2,-,N/A,,Clear,190,2013-02-03 04:18:00
10:23 PM,32.0,32.0,100,30.22,1.5,SW,2.3,-,N/A,,Clear,230,2013-02-03 04:23:00
10:28 PM,32.0,32.0,100,30.22,2.0,Calm,Calm,-,N/A,,Clear,310,2013-02-03 04:28:00
10:33 PM,32.0,32.0,100,30.22,2.5,Calm,Calm,-,N/A,,Clear,0,2013-02-03 04:33:00
10:38 PM,32.0,32.0,100,30.23,5.0,West,1.2,-,N/A,,Clear,280,2013-02-03 04:38:00
10:58 PM,32.0,32.0,100,30.25,2.0,Calm,Calm,-,N/A,,Clear,0,2013-02-03 04:58:00
11:03 PM,32.0,32.0,100,30.22,1.2,Calm,Calm,-,N/A,,Clear,0,2013-02-03 05:03:00
11:08 PM,32.0,32.0,100,30.22,2.0,Calm,Calm,-,N/A,,Clear,0,2013-02-03 05:08:00
11:13 PM,32.0,32.0,100,30.22,5.0,Calm,Calm,-,N/A,,Clear,0,2013-02-03 05:13:00
11:58 PM,32.0,31.8,99,30.23,10.0,Calm,Calm,-,N/A,,Clear,0,2013-02-03 05:58:00